Printer-friendly version

IAU Minor Planet Center

Minor Planet Center

MPEC 2006-V55 : 2006 VD13

The following Minor Planet Electronic Circular may be linked-to from your own Web pages, but must not otherwise be redistributed electronically.


Read MPEC 2006-V54 Read MPEC 2006-V56


M.P.E.C. 2006-V55                                Issued 2006 Nov. 14, 20:29 UT

     The Minor Planet Electronic Circulars contain information on unusual
         minor planets and routine data on comets.  They are published
   on behalf of Commission 20 of the International Astronomical Union by the
          Minor Planet Center, Smithsonian Astrophysical Observatory,
                          Cambridge, MA 02138, U.S.A.

             Prepared using the Tamkin Foundation Computer Network

                              MPC@CFA.HARVARD.EDU
          URL http://cfa-www.harvard.edu/iau/mpc.html  ISSN 1523-6714

                                   2006 VD13

Observations:
     K06V13D* C2006 11 13.18882 23 55 45.58 +41 45 39.6          18.8   EV055704
     K06V13D  C2006 11 13.21320 23 55 42.61 +41 45 31.8          19.3   EV055704
     K06V13D  C2006 11 13.22536 23 55 41.01 +41 45 27.6          19.3   EV055704
     K06V13D  C2006 11 13.23754 23 55 39.44 +41 45 23.7          19.4   EV055704
     K06V13D  C2006 11 14.07132 23 54 05.94 +41 41 08.0          18.6 V EV055G96
     K06V13D  C2006 11 14.07547 23 54 05.43 +41 41 07.0          18.7 V EV055G96
     K06V13D  C2006 11 14.07965 23 54 04.89 +41 41 05.7          18.8 V EV055G96
     K06V13D  C2006 11 14.08382 23 54 04.39 +41 41 04.7          18.6 V EV055G96
     K06V13D  C2006 11 14.23182 23 53 46.38 +41 40 17.4          19.1 R EV055854
     K06V13D  C2006 11 14.23858 23 53 45.63 +41 40 16.0          18.8 R EV055854
     K06V13D  C2006 11 14.75047 23 52 50.29 +41 37 22.3          18.9 R EV055143
     K06V13D  C2006 11 14.75928 23 52 49.25 +41 37 19.2          18.2 R EV055143

Observer details:
143 Gnosca.  Observer S. Sposetti.  0.40-m f/4 reflector + CCD.
704 Lincoln Laboratory ETS, New Mexico.  Observers M. Bezpalko, L. Manguso,
    D. Torres, R. Kracke, H. Love, G. Spitz, J. Kistler.  Measurers J. Stuart,
    J. Kommers.  1.0-m f/2.15 reflector + CCD.
854 Sabino Canyon Observatory, Tucson.  Observer J. E. McGaha.  0.36-m f/10.0
    Schmidt-Cassegrain + CCD.
G96 Mt. Lemmon Survey.  Observer R. A. Kowalski.  Measurers E. C. Beshore,
    E. J. Christensen, G. J. Garradd, A. R. Gibbs, A. D. Grauer, R. E. Hill,
    R. A. Kowalski, S. M. Larson, R. H. McNaught.  1.5-m reflector + CCD.

Orbital elements:
2006 VD13                                           PHA, Earth MOID = 0.0335 AU
Epoch 2006 Sept. 22.0 TT = JDT 2454000.5                MPC
M 311.88893              (2000.0)            P               Q
n   0.37561999     Peri.  162.38445     -0.45528077     -0.87882329
a   1.9024077      Node   314.41811     +0.79092452     -0.32556056
e   0.4701817      Incl.   11.53204     +0.40884938     -0.34882653
P   2.62           H   18.7           G   0.15           U   9
Residuals in seconds of arc
061113 704  0.1-  0.1+    061114 G96  0.2+  0.3-    061114 854  0.3-  0.0
061113 704  0.9+  0.1+    061114 G96  0.1+  0.2-    061114 854  0.4+  1.1+
061113 704  0.1-  0.1-    061114 G96  0.3-  0.3-    061114 143  0.0   0.1+
061113 704  0.7-  0.0     061114 G96  0.2-  0.1-    061114 143  0.1-  0.3-

Ephemeris:
2006 VD13                a,e,i = 1.90, 0.47, 12                  q = 1.0079
Date    TT    R. A. (2000) Decl.     Delta      r     Elong.  Phase     V
2006 11 11    00 00.16   +41 55.2    0.432    1.327   133.9    32.5    18.9
2006 11 21    23 42.94   +40 55.7    0.404    1.264   124.9    39.9    18.8
2006 12 01    23 34.20   +39 34.4    0.381    1.204   116.2    47.3    18.8
2006 12 11    23 34.54   +38 16.1    0.357    1.149   108.4    54.4    18.7
2006 12 21    23 43.85   +37 12.0    0.330    1.100   101.8    61.1    18.7
2006 12 31    00 02.36   +36 22.7    0.299    1.060    96.5    67.2    18.6
2007 01 10    00 31.07   +35 33.3    0.263    1.030    92.7    72.5    18.4
2007 01 20    01 12.88   +34 08.1    0.224    1.012    90.8    76.4    18.1
2007 01 30    02 12.43   +30 56.5    0.187    1.008    91.8    77.6    17.8
2007 02 09    03 32.30   +23 54.3    0.159    1.018    96.8    74.3    17.3
2007 02 19    05 03.99   +12 04.3    0.151    1.040   105.9    66.1    17.0
2007 03 01    06 28.10   -00 26.4    0.169    1.074   115.2    56.6    17.0
2007 03 11    07 33.54   -09 04.7    0.211    1.118   121.4    49.4    17.4
2007 03 21    08 22.49   -13 47.8    0.268    1.169   124.5    44.6    17.9
2007 03 31    09 00.57   -16 07.0    0.337    1.226   125.7    41.4    18.4
2007 04 10    09 31.88   -17 09.9    0.415    1.288   125.5    39.3    18.9
2007 04 20    09 59.05   -17 34.7    0.503    1.352   124.0    38.0    19.4
2007 04 30    10 23.68   -17 44.5    0.600    1.417   121.7    37.2    19.9
2007 05 10    10 46.60   -17 51.2    0.707    1.484   118.6    36.7    20.3
2007 05 20    11 08.36   -18 01.0    0.822    1.550   115.0    36.3    20.7
2007 05 30    11 29.34   -18 17.6    0.947    1.616   111.0    35.8    21.1
2007 06 09    11 49.70   -18 41.4    1.079    1.681   106.7    35.3    21.4
2007 06 19    12 09.64   -19 12.5    1.219    1.745   102.2    34.7    21.8

Kyle E. Smalley              (C) Copyright 2006 MPC           M.P.E.C. 2006-V55

Read MPEC 2006-V54 Read MPEC 2006-V56


Our Web policy. Index to the CBAT/MPC/ICQ pages.


Valid HTML 4.01!